Time,TemperatureF,DewpointF,PressureIn,WindDirection,WindDirectionDegrees,WindSpeedMPH,WindSpeedGustMPH,Humidity,HourlyPrecipIn,Conditions,Clouds,dailyrainin,SolarRadiationWatts/m^2,SoftwareType,DateUTC
2013-09-04 00:11:00,79.0,51.0,-100.00,East,96,9.0,10.0,38,0.00,,,0.00,0.000000,,2013-09-04 07:11:00,
2013-09-04 00:22:00,79.0,51.0,-100.00,East,96,9.0,10.0,38,0.00,,,0.00,0.000000,,2013-09-04 07:22:00,
2013-09-04 00:32:00,79.0,51.0,-100.00,East,96,9.0,10.0,38,0.00,,,0.00,0.000000,,2013-09-04 07:32:00,
2013-09-04 00:42:00,79.0,51.0,-100.00,East,96,9.0,10.0,38,0.00,,,0.00,0.000000,,2013-09-04 07:42:00,
2013-09-04 01:12:00,79.0,50.0,-100.00,ESE,107,10.0,12.0,37,0.00,,,0.00,0.000000,,2013-09-04 08:12:00,
2013-09-04 09:12:00,82.0,50.0,-100.00,ENE,77,10.0,19.0,33,0.00,,,0.00,315.000000,,2013-09-04 16:12:00,
2013-09-04 09:23:00,82.0,50.0,-100.00,ENE,77,10.0,19.0,33,0.00,,,0.00,315.000000,,2013-09-04 16:23:00,
2013-09-04 09:34:00,82.0,50.0,-100.00,ENE,77,10.0,19.0,33,0.00,,,0.00,315.000000,,2013-09-04 16:34:00,
2013-09-04 09:43:00,82.0,50.0,-100.00,ENE,77,10.0,19.0,33,0.00,,,0.00,315.000000,,2013-09-04 16:43:00,
2013-09-04 10:13:00,87.0,51.0,-100.00,ENE,68,7.0,12.0,29,0.00,,,-99.99,510.000000,,2013-09-04 17:13:00,
2013-09-04 10:22:00,87.0,51.0,-100.00,ENE,68,7.0,12.0,29,0.00,,,-99.99,510.000000,,2013-09-04 17:22:00,
2013-09-04 10:34:00,87.0,51.0,-100.00,ENE,68,7.0,12.0,29,0.00,,,-99.99,510.000000,,2013-09-04 17:34:00,
2013-09-04 10:42:00,87.0,51.0,-100.00,ENE,68,7.0,12.0,29,0.00,,,-99.99,510.000000,,2013-09-04 17:42:00,
2013-09-04 11:12:00,90.0,50.0,-100.00,West,280,4.0,9.0,26,0.00,,,0.00,672.000000,,2013-09-04 18:12:00,
2013-09-04 11:21:00,90.0,50.0,-100.00,West,280,4.0,9.0,26,0.00,,,0.00,672.000000,,2013-09-04 18:21:00,
2013-09-04 11:32:00,90.0,50.0,-100.00,West,280,4.0,9.0,26,0.00,,,0.00,672.000000,,2013-09-04 18:32:00,
2013-09-04 11:42:00,90.0,50.0,-100.00,West,280,4.0,9.0,26,0.00,,,0.00,672.000000,,2013-09-04 18:42:00,
2013-09-04 12:11:00,89.0,54.0,-100.00,WNW,288,10.0,14.0,31,0.00,,,0.00,794.000000,,2013-09-04 19:11:00,
2013-09-04 12:22:00,89.0,54.0,-100.00,WNW,288,10.0,14.0,31,0.00,,,0.00,794.000000,,2013-09-04 19:22:00,
2013-09-04 12:32:00,89.0,54.0,-100.00,WNW,288,10.0,14.0,31,0.00,,,0.00,794.000000,,2013-09-04 19:32:00,
2013-09-04 12:42:00,89.0,54.0,-100.00,WNW,288,10.0,14.0,31,0.00,,,0.00,794.000000,,2013-09-04 19:42:00,
2013-09-04 13:11:00,92.0,50.0,-100.00,West,268,9.0,19.0,24,0.00,,,0.00,862.000000,,2013-09-04 20:11:00,
2013-09-04 13:22:00,92.0,50.0,-100.00,West,268,9.0,19.0,24,0.00,,,0.00,862.000000,,2013-09-04 20:22:00,
2013-09-04 13:32:00,92.0,50.0,-100.00,West,268,9.0,19.0,24,0.00,,,0.00,862.000000,,2013-09-04 20:32:00,
2013-09-04 13:43:00,92.0,50.0,-100.00,West,268,9.0,19.0,24,0.00,,,0.00,862.000000,,2013-09-04 20:43:00,
2013-09-04 14:11:00,94.0,52.0,-100.00,West,279,12.0,20.0,24,0.00,,,0.00,872.000000,,2013-09-04 21:11:00,
2013-09-04 14:22:00,94.0,52.0,-100.00,West,279,12.0,20.0,24,0.00,,,0.00,872.000000,,2013-09-04 21:22:00,
2013-09-04 14:34:00,94.0,52.0,-100.00,West,279,12.0,20.0,24,0.00,,,0.00,872.000000,,2013-09-04 21:34:00,
2013-09-04 14:44:00,94.0,52.0,-100.00,West,279,12.0,20.0,24,0.00,,,0.00,872.000000,,2013-09-04 21:44:00,
2013-09-04 15:14:00,93.0,52.0,-100.00,WNW,285,13.0,21.0,25,0.00,,,0.00,817.000000,,2013-09-04 22:14:00,
2013-09-04 15:23:00,93.0,52.0,-100.00,WNW,285,13.0,21.0,25,0.00,,,0.00,817.000000,,2013-09-04 22:23:00,
2013-09-04 15:33:00,93.0,52.0,-100.00,WNW,285,13.0,21.0,25,0.00,,,0.00,817.000000,,2013-09-04 22:33:00,
2013-09-04 15:43:00,93.0,52.0,-100.00,WNW,285,13.0,21.0,25,0.00,,,0.00,817.000000,,2013-09-04 22:43:00,
2013-09-04 16:13:00,91.0,50.0,-100.00,WSW,247,14.0,18.0,25,0.00,,,0.00,705.000000,,2013-09-04 23:13:00,
2013-09-04 16:22:00,91.0,50.0,-100.00,WSW,247,14.0,18.0,25,0.00,,,0.00,705.000000,,2013-09-04 23:22:00,
2013-09-04 16:34:00,91.0,50.0,-100.00,WSW,247,14.0,18.0,25,0.00,,,0.00,705.000000,,2013-09-04 23:34:00,
2013-09-04 16:42:00,91.0,50.0,-100.00,WSW,247,14.0,18.0,25,0.00,,,0.00,705.000000,,2013-09-04 23:42:00,
2013-09-04 17:11:00,88.0,47.0,-100.00,SW,228,16.0,22.0,24,0.00,,,0.00,549.000000,,2013-09-05 00:11:00,
2013-09-04 17:22:00,88.0,47.0,-100.00,SW,228,16.0,22.0,24,0.00,,,0.00,549.000000,,2013-09-05 00:22:00,
2013-09-04 17:32:00,88.0,47.0,-100.00,SW,228,16.0,22.0,24,0.00,,,0.00,549.000000,,2013-09-05 00:32:00,
2013-09-04 17:42:00,88.0,47.0,-100.00,SW,228,16.0,22.0,24,0.00,,,0.00,549.000000,,2013-09-05 00:42:00,
2013-09-04 18:21:00,88.0,46.0,-100.00,WSW,257,14.0,22.0,23,0.00,,,0.00,359.000000,,2013-09-05 01:21:00,
2013-09-04 18:32:00,88.0,46.0,-100.00,WSW,257,14.0,22.0,23,0.00,,,0.00,359.000000,,2013-09-05 01:32:00,
2013-09-04 19:11:00,84.0,50.0,-100.00,WSW,252,13.0,18.0,31,0.00,,,0.00,160.000000,,2013-09-05 02:11:00,
2013-09-04 19:22:00,84.0,50.0,-100.00,WSW,252,13.0,18.0,31,0.00,,,0.00,160.000000,,2013-09-05 02:22:00,
2013-09-04 19:32:00,84.0,50.0,-100.00,WSW,252,13.0,18.0,31,0.00,,,0.00,160.000000,,2013-09-05 02:32:00,
2013-09-04 19:42:00,84.0,50.0,-100.00,WSW,252,13.0,18.0,31,0.00,,,0.00,160.000000,,2013-09-05 02:42:00,
2013-09-04 20:11:00,77.0,56.0,-100.00,WSW,252,8.0,13.0,48,0.00,,,0.00,14.000000,,2013-09-05 03:11:00,
2013-09-04 20:22:00,77.0,56.0,-100.00,WSW,252,8.0,13.0,48,0.00,,,0.00,14.000000,,2013-09-05 03:22:00,
2013-09-04 20:34:00,77.0,56.0,-100.00,WSW,252,8.0,13.0,48,0.00,,,0.00,14.000000,,2013-09-05 03:34:00,
2013-09-04 20:45:00,77.0,56.0,-100.00,WSW,252,8.0,13.0,48,0.00,,,0.00,14.000000,,2013-09-05 03:45:00,
2013-09-04 21:13:00,81.0,51.0,-100.00,WSW,239,7.0,10.0,35,0.00,,,0.00,1.000000,,2013-09-05 04:13:00,
2013-09-04 21:24:00,81.0,51.0,-100.00,WSW,239,7.0,10.0,35,0.00,,,0.00,1.000000,,2013-09-05 04:24:00,
2013-09-04 21:34:00,81.0,51.0,-100.00,WSW,239,7.0,10.0,35,0.00,,,0.00,1.000000,,2013-09-05 04:34:00,
2013-09-04 21:44:00,81.0,51.0,-100.00,WSW,239,7.0,10.0,35,0.00,,,0.00,1.000000,,2013-09-05 04:44:00,
2013-09-04 22:12:00,77.0,49.0,-100.00,East,86,1.0,8.0,38,0.00,,,-99.99,1.000000,,2013-09-05 05:12:00,
2013-09-04 22:23:00,77.0,49.0,-100.00,East,86,1.0,8.0,38,0.00,,,-99.99,1.000000,,2013-09-05 05:23:00,
2013-09-04 22:34:00,77.0,49.0,-100.00,East,86,1.0,8.0,38,0.00,,,-99.99,1.000000,,2013-09-05 05:34:00,
2013-09-04 22:43:00,77.0,49.0,-100.00,East,86,1.0,8.0,38,0.00,,,-99.99,1.000000,,2013-09-05 05:43:00,
2013-09-04 23:12:00,80.0,51.0,-100.00,SE,132,8.0,9.0,36,0.00,,,0.00,0.000000,,2013-09-05 06:12:00,
2013-09-04 23:21:00,80.0,51.0,-100.00,SE,132,8.0,9.0,36,0.00,,,0.00,0.000000,,2013-09-05 06:21:00,
2013-09-04 23:32:00,80.0,51.0,-100.00,SE,132,8.0,9.0,36,0.00,,,0.00,0.000000,,2013-09-05 06:32:00,
2013-09-04 23:42:00,80.0,51.0,-100.00,SE,132,8.0,9.0,36,0.00,,,0.00,0.000000,,2013-09-05 06:42:00,